Year,Month,Day,Hour,Minute,Value (Times are PST for temperature in C)
2013,08,21,00,00,14.20
2013,08,21,00,01,14.20
2013,08,21,00,02,14.20
2013,08,21,00,03,14.20
2013,08,21,00,04,14.20
2013,08,21,00,05,14.20
2013,08,21,00,06,14.20
2013,08,21,00,07,14.20
2013,08,21,00,08,14.20
2013,08,21,00,09,14.20
2013,08,21,00,10,14.10
2013,08,21,00,11,14.10
2013,08,21,00,12,14.10
2013,08,21,00,13,14.00
2013,08,21,00,14,14.00
2013,08,21,00,15,13.90
2013,08,21,00,16,13.90
2013,08,21,00,17,13.90
2013,08,21,00,18,13.80
2013,08,21,00,19,13.80
2013,08,21,00,20,13.80
2013,08,21,00,21,13.70
2013,08,21,00,22,13.70
2013,08,21,00,23,13.70
2013,08,21,00,24,13.70
2013,08,21,00,25,13.70
2013,08,21,00,26,13.70
2013,08,21,00,27,13.70
2013,08,21,00,28,13.70
2013,08,21,00,29,13.70
2013,08,21,00,30,13.70
2013,08,21,00,31,13.70
2013,08,21,00,32,13.70
2013,08,21,00,33,13.80
2013,08,21,00,34,13.80
2013,08,21,00,35,13.80
2013,08,21,00,36,13.80
2013,08,21,00,37,13.80
2013,08,21,00,38,13.80
2013,08,21,00,39,13.80
2013,08,21,00,40,13.90
2013,08,21,00,41,13.90
2013,08,21,00,42,13.90
2013,08,21,00,43,13.80
2013,08,21,00,44,13.80
2013,08,21,00,45,13.80
2013,08,21,00,46,13.70
2013,08,21,00,47,13.70
2013,08,21,00,48,13.60
2013,08,21,00,49,13.60
2013,08,21,00,50,13.50
2013,08,21,00,51,13.50
2013,08,21,00,52,13.40
2013,08,21,00,53,13.40
2013,08,21,00,54,13.30
2013,08,21,00,55,13.30
2013,08,21,00,56,13.30
2013,08,21,00,57,13.30
2013,08,21,00,58,13.20
2013,08,21,00,59,13.20
2013,08,21,01,00,13.20
2013,08,21,01,01,13.20
2013,08,21,01,02,13.20
2013,08,21,01,03,13.10
2013,08,21,01,04,13.10
2013,08,21,01,05,13.10
2013,08,21,01,06,13.10
2013,08,21,01,07,13.10
2013,08,21,01,08,13.10
2013,08,21,01,09,13.10
2013,08,21,01,10,13.00
2013,08,21,01,11,13.00
2013,08,21,01,12,12.90
2013,08,21,01,13,12.90
2013,08,21,01,14,12.90
2013,08,21,01,15,12.90
2013,08,21,01,16,12.90
2013,08,21,01,17,12.90
2013,08,21,01,18,12.90
2013,08,21,01,19,12.90
2013,08,21,01,20,12.80
2013,08,21,01,21,12.80
2013,08,21,01,22,12.80
2013,08,21,01,23,12.80
2013,08,21,01,24,12.80
2013,08,21,01,25,12.80
2013,08,21,01,26,12.80
2013,08,21,01,27,12.70
2013,08,21,01,28,12.70
2013,08,21,01,29,12.70
2013,08,21,01,30,12.70
2013,08,21,01,31,12.70
2013,08,21,01,32,12.60
2013,08,21,01,33,12.60
2013,08,21,01,34,12.60
2013,08,21,01,35,12.60
2013,08,21,01,36,12.60
2013,08,21,01,37,12.60
2013,08,21,01,38,12.60
2013,08,21,01,39,12.60
2013,08,21,01,40,12.60
2013,08,21,01,41,12.60
2013,08,21,01,42,12.50
2013,08,21,01,43,12.50
2013,08,21,01,44,12.50
2013,08,21,01,45,12.50
2013,08,21,01,46,12.50
2013,08,21,01,47,12.50
2013,08,21,01,48,12.50
2013,08,21,01,49,12.40
2013,08,21,01,50,12.40
2013,08,21,01,51,12.40
2013,08,21,01,52,12.30
2013,08,21,01,53,12.30
2013,08,21,01,54,12.30
2013,08,21,01,55,12.30
2013,08,21,01,56,12.30
2013,08,21,01,57,12.30
2013,08,21,01,58,12.30
2013,08,21,01,59,12.30
2013,08,21,02,00,12.30
2013,08,21,02,01,12.30
2013,08,21,02,02,12.30
2013,08,21,02,03,12.30
2013,08,21,02,04,12.20
2013,08,21,02,05,12.20
2013,08,21,02,06,12.20
2013,08,21,02,07,12.20
2013,08,21,02,08,12.20
2013,08,21,02,09,12.10
2013,08,21,02,10,12.10
2013,08,21,02,11,12.10
2013,08,21,02,12,12.10
2013,08,21,02,13,12.00
2013,08,21,02,14,12.00
2013,08,21,02,15,12.00
2013,08,21,02,16,12.00
2013,08,21,02,17,11.90
2013,08,21,02,18,12.00
2013,08,21,02,19,12.00
2013,08,21,02,20,12.00
2013,08,21,02,21,12.00
2013,08,21,02,22,12.00
2013,08,21,02,23,12.00
2013,08,21,02,24,12.00
2013,08,21,02,25,12.00
2013,08,21,02,26,12.00
2013,08,21,02,27,11.90
2013,08,21,02,28,11.90
2013,08,21,02,29,11.90
2013,08,21,02,30,11.90
2013,08,21,02,31,12.00
2013,08,21,02,32,12.00
2013,08,21,02,33,12.00
2013,08,21,02,34,12.00
2013,08,21,02,35,12.00
2013,08,21,02,36,12.00
2013,08,21,02,37,12.00
2013,08,21,02,38,12.00
2013,08,21,02,39,12.00
2013,08,21,02,40,12.00
2013,08,21,02,41,12.00
2013,08,21,02,42,12.00
2013,08,21,02,43,12.00
2013,08,21,02,44,12.00
2013,08,21,02,45,12.00
2013,08,21,02,46,12.10
2013,08,21,02,47,12.10
2013,08,21,02,48,12.10
2013,08,21,02,49,12.10
2013,08,21,02,50,12.10
2013,08,21,02,51,12.10
2013,08,21,02,52,12.10
2013,08,21,02,53,12.00
2013,08,21,02,54,12.00
2013,08,21,02,55,12.00
2013,08,21,02,56,12.00
2013,08,21,02,57,11.90
2013,08,21,02,58,11.90
2013,08,21,02,59,11.90
2013,08,21,03,00,11.90
2013,08,21,03,01,11.80
2013,08,21,03,02,11.80
2013,08,21,03,03,11.80
2013,08,21,03,04,11.80
2013,08,21,03,05,11.80
2013,08,21,03,06,11.80
2013,08,21,03,07,11.80
2013,08,21,03,08,11.80
2013,08,21,03,09,11.80
2013,08,21,03,10,11.80
2013,08,21,03,11,11.70
2013,08,21,03,12,11.70
2013,08,21,03,13,11.70
2013,08,21,03,14,11.70
2013,08,21,03,15,11.70
2013,08,21,03,16,11.70
2013,08,21,03,17,11.80
2013,08,21,03,18,11.80
2013,08,21,03,19,11.80
2013,08,21,03,20,11.80
2013,08,21,03,21,11.80
2013,08,21,03,22,11.80
2013,08,21,03,23,11.80
2013,08,21,03,24,11.80
2013,08,21,03,25,11.80
2013,08,21,03,26,11.80
2013,08,21,03,27,11.80
2013,08,21,03,28,11.80
2013,08,21,03,29,11.70
2013,08,21,03,30,11.70
2013,08,21,03,31,11.70
2013,08,21,03,32,11.70
2013,08,21,03,33,11.70
2013,08,21,03,34,11.60
2013,08,21,03,35,11.60
2013,08,21,03,36,11.60
2013,08,21,03,37,11.60
2013,08,21,03,38,11.70
2013,08,21,03,39,11.70
2013,08,21,03,40,11.80
2013,08,21,03,41,11.80
2013,08,21,03,42,11.80
2013,08,21,03,43,11.80
2013,08,21,03,44,11.70
2013,08,21,03,45,11.70
2013,08,21,03,46,11.70
2013,08,21,03,47,11.70
2013,08,21,03,48,11.60
2013,08,21,03,49,11.60
2013,08,21,03,50,11.70
2013,08,21,03,51,11.70
2013,08,21,03,52,11.70
2013,08,21,03,53,11.80
2013,08,21,03,54,11.80
2013,08,21,03,55,11.80
2013,08,21,03,56,11.80
2013,08,21,03,57,11.80
2013,08,21,03,58,11.80
2013,08,21,03,59,11.80
2013,08,21,04,00,11.80
2013,08,21,04,01,11.80
2013,08,21,04,02,11.80
2013,08,21,04,03,11.80
2013,08,21,04,04,11.80
2013,08,21,04,05,11.80
2013,08,21,04,06,11.80
2013,08,21,04,07,11.80
2013,08,21,04,08,11.80
2013,08,21,04,09,11.80
2013,08,21,04,10,11.80
2013,08,21,04,11,11.80
2013,08,21,04,12,11.90
2013,08,21,04,13,11.90
2013,08,21,04,14,11.90
2013,08,21,04,15,12.00
2013,08,21,04,16,12.00
2013,08,21,04,17,12.10
2013,08,21,04,18,12.10
2013,08,21,04,19,12.10
2013,08,21,04,20,12.10
2013,08,21,04,21,12.10
2013,08,21,04,22,12.10
2013,08,21,04,23,12.10
2013,08,21,04,24,12.10
2013,08,21,04,25,12.10
2013,08,21,04,26,12.10
2013,08,21,04,27,12.10
2013,08,21,04,28,12.10
2013,08,21,04,29,12.10
2013,08,21,04,30,12.10
2013,08,21,04,31,12.10
2013,08,21,04,32,12.20
2013,08,21,04,33,12.20
2013,08,21,04,34,12.20
2013,08,21,04,35,12.20
2013,08,21,04,36,12.30
2013,08,21,04,37,12.30
2013,08,21,04,38,12.30
2013,08,21,04,39,12.30
2013,08,21,04,40,12.30
2013,08,21,04,41,12.30
2013,08,21,04,42,12.30
2013,08,21,04,43,12.30
2013,08,21,04,44,12.30
2013,08,21,04,45,12.30
2013,08,21,04,46,12.30
2013,08,21,04,47,12.30
2013,08,21,04,48,12.30
2013,08,21,04,49,12.30
2013,08,21,04,50,12.30
2013,08,21,04,51,12.30
2013,08,21,04,52,12.30
2013,08,21,04,53,12.30
2013,08,21,04,54,12.30
2013,08,21,04,55,12.30
2013,08,21,04,56,12.30
2013,08,21,04,57,12.30
2013,08,21,04,58,12.30
2013,08,21,04,59,12.30
2013,08,21,05,00,12.30
2013,08,21,05,01,12.30
2013,08,21,05,02,12.30
2013,08,21,05,03,12.30
2013,08,21,05,04,12.30
2013,08,21,05,05,12.30
2013,08,21,05,06,12.30
2013,08,21,05,07,12.30
2013,08,21,05,08,12.30
2013,08,21,05,09,12.30
2013,08,21,05,10,12.30
2013,08,21,05,11,12.30
2013,08,21,05,12,12.40
2013,08,21,05,13,12.50
2013,08,21,05,14,12.60
2013,08,21,05,15,12.60
2013,08,21,05,16,12.70
2013,08,21,05,17,12.80
2013,08,21,05,18,12.90
2013,08,21,05,19,13.00
2013,08,21,05,20,13.10
2013,08,21,05,21,13.10
2013,08,21,05,22,13.20
2013,08,21,05,23,13.30
2013,08,21,05,24,13.30
2013,08,21,05,25,13.40
2013,08,21,05,26,13.40
2013,08,21,05,27,13.50
2013,08,21,05,28,13.50
2013,08,21,05,29,13.60
2013,08,21,05,30,13.60
2013,08,21,05,31,13.70
2013,08,21,05,32,13.70
2013,08,21,05,33,13.70
2013,08,21,05,34,13.70
2013,08,21,05,35,13.80
2013,08,21,05,36,13.80
2013,08,21,05,37,13.80
2013,08,21,05,38,13.80
2013,08,21,05,39,13.80
2013,08,21,05,40,13.90
2013,08,21,05,41,13.80
2013,08,21,05,42,13.80
2013,08,21,05,43,13.80
2013,08,21,05,44,13.80
2013,08,21,05,45,13.80
2013,08,21,05,46,13.70
2013,08,21,05,47,13.70
2013,08,21,05,48,13.70
2013,08,21,05,49,13.70
2013,08,21,05,50,13.70
2013,08,21,05,51,13.60
2013,08,21,05,52,13.60
2013,08,21,05,53,13.60
2013,08,21,05,54,13.50
2013,08,21,05,55,13.50
2013,08,21,05,56,13.50
2013,08,21,05,57,13.50
2013,08,21,05,58,13.50
2013,08,21,05,59,13.40
2013,08,21,06,00,13.40
2013,08,21,06,01,13.40
2013,08,21,06,02,13.30
2013,08,21,06,03,13.30
2013,08,21,06,04,13.30
2013,08,21,06,05,13.30
2013,08,21,06,06,13.30
2013,08,21,06,07,13.30
2013,08,21,06,08,13.30
2013,08,21,06,09,13.30
2013,08,21,06,10,13.20
2013,08,21,06,11,13.20
2013,08,21,06,12,13.20
2013,08,21,06,13,13.10
2013,08,21,06,14,13.10
2013,08,21,06,15,13.10
2013,08,21,06,16,13.10
2013,08,21,06,17,13.10
2013,08,21,06,18,13.00
2013,08,21,06,19,13.00
2013,08,21,06,20,13.00
2013,08,21,06,21,12.90
2013,08,21,06,22,12.90
2013,08,21,06,23,12.90
2013,08,21,06,24,12.80
2013,08,21,06,25,12.80
2013,08,21,06,26,12.80
2013,08,21,06,27,12.80
2013,08,21,06,28,12.70
2013,08,21,06,29,12.70
2013,08,21,06,30,12.60
2013,08,21,06,31,12.60
2013,08,21,06,32,12.50
2013,08,21,06,33,12.50
2013,08,21,06,34,12.50
2013,08,21,06,35,12.40
2013,08,21,06,36,12.40
2013,08,21,06,37,12.40
2013,08,21,06,38,12.40
2013,08,21,06,39,12.40
2013,08,21,06,40,12.40
2013,08,21,06,41,12.30
2013,08,21,06,42,12.30
2013,08,21,06,43,12.30
2013,08,21,06,44,12.30
2013,08,21,06,45,12.30
2013,08,21,06,46,12.30
2013,08,21,06,47,12.30
2013,08,21,06,48,12.30
2013,08,21,06,49,12.30
2013,08,21,06,50,12.30
2013,08,21,06,51,12.40
2013,08,21,06,52,12.40
2013,08,21,06,53,12.50
2013,08,21,06,54,12.60
2013,08,21,06,55,12.70
2013,08,21,06,56,12.70
2013,08,21,06,57,12.80
2013,08,21,06,58,12.80
2013,08,21,06,59,12.90
2013,08,21,07,00,13.00
2013,08,21,07,01,13.00
2013,08,21,07,02,13.10
2013,08,21,07,03,13.10
2013,08,21,07,04,13.10
2013,08,21,07,05,13.20
2013,08,21,07,06,13.20
2013,08,21,07,07,13.20
2013,08,21,07,08,13.30
2013,08,21,07,09,13.30
2013,08,21,07,10,13.30
2013,08,21,07,11,13.30
2013,08,21,07,12,13.30
2013,08,21,07,13,13.20
2013,08,21,07,14,13.20
2013,08,21,07,15,13.20
2013,08,21,07,16,13.20
2013,08,21,07,17,13.20
2013,08,21,07,18,13.20
2013,08,21,07,19,13.20
2013,08,21,07,20,13.20
2013,08,21,07,21,13.20
2013,08,21,07,22,13.20
2013,08,21,07,23,13.20
2013,08,21,07,24,13.10
2013,08,21,07,25,13.10
2013,08,21,07,26,13.10
2013,08,21,07,27,13.10
2013,08,21,07,28,13.10
2013,08,21,07,29,13.10
2013,08,21,07,30,13.20
2013,08,21,07,31,13.30
2013,08,21,07,32,13.30
2013,08,21,07,33,13.40
2013,08,21,07,34,13.50
2013,08,21,07,35,13.60
2013,08,21,07,36,13.70
2013,08,21,07,37,13.90
2013,08,21,07,38,14.00
2013,08,21,07,39,14.10
2013,08,21,07,40,14.20
2013,08,21,07,41,14.40
2013,08,21,07,42,14.50
2013,08,21,07,43,14.60
2013,08,21,07,44,14.70
2013,08,21,07,45,14.80
2013,08,21,07,46,14.80
2013,08,21,07,47,14.90
2013,08,21,07,48,15.00
2013,08,21,07,49,15.10
2013,08,21,07,50,15.20
2013,08,21,07,51,15.30
2013,08,21,07,52,15.30
2013,08,21,07,53,15.40
2013,08,21,07,54,15.50
2013,08,21,07,55,15.50
2013,08,21,07,56,15.60
2013,08,21,07,57,15.60
2013,08,21,07,58,15.70
2013,08,21,07,59,15.70
2013,08,21,08,00,15.80
2013,08,21,08,01,15.80
2013,08,21,08,02,15.80
2013,08,21,08,03,15.80
2013,08,21,08,04,15.80
2013,08,21,08,05,15.80
2013,08,21,08,06,15.80
2013,08,21,08,07,15.80
2013,08,21,08,08,15.80
2013,08,21,08,09,15.90
2013,08,21,08,10,16.00
2013,08,21,08,11,16.10
2013,08,21,08,12,16.10
2013,08,21,08,13,16.10
2013,08,21,08,14,16.10
2013,08,21,08,15,16.20
2013,08,21,08,16,16.20
2013,08,21,08,17,16.30
2013,08,21,08,18,16.30
2013,08,21,08,19,16.40
2013,08,21,08,20,16.40
2013,08,21,08,21,16.50
2013,08,21,08,22,16.60
2013,08,21,08,23,16.60
2013,08,21,08,24,16.60
2013,08,21,08,25,16.70
2013,08,21,08,26,16.70
2013,08,21,08,27,16.70
2013,08,21,08,28,16.80
2013,08,21,08,29,16.80
2013,08,21,08,30,16.90
2013,08,21,08,31,16.90
2013,08,21,08,32,16.90
2013,08,21,08,33,17.00
2013,08,21,08,34,17.00
2013,08,21,08,35,17.10
2013,08,21,08,36,17.20
2013,08,21,08,37,17.20
2013,08,21,08,38,17.30
2013,08,21,08,39,17.30
2013,08,21,08,40,17.30
2013,08,21,08,41,17.30
2013,08,21,08,42,17.40
2013,08,21,08,43,17.40
2013,08,21,08,44,17.40
2013,08,21,08,45,17.40
2013,08,21,08,46,17.40
2013,08,21,08,47,17.50
2013,08,21,08,48,17.50
2013,08,21,08,49,17.60
2013,08,21,08,50,17.70
2013,08,21,08,51,17.80
2013,08,21,08,52,17.80
2013,08,21,08,53,17.80
2013,08,21,08,54,17.80
2013,08,21,08,55,17.80
2013,08,21,08,56,17.80
2013,08,21,08,57,17.80
2013,08,21,08,58,17.80
2013,08,21,08,59,17.80
2013,08,21,09,00,17.80
2013,08,21,09,01,17.80
2013,08,21,09,02,17.80
2013,08,21,09,03,17.80
2013,08,21,09,04,17.80
2013,08,21,09,05,17.90
2013,08,21,09,06,17.90
2013,08,21,09,07,17.90
2013,08,21,09,08,17.90
2013,08,21,09,09,18.00
2013,08,21,09,10,18.10
2013,08,21,09,11,18.10
2013,08,21,09,12,18.20
2013,08,21,09,13,18.20
2013,08,21,09,14,18.10
2013,08,21,09,15,18.10
2013,08,21,09,16,17.90
2013,08,21,09,17,17.90
2013,08,21,09,18,18.00
2013,08,21,09,19,18.10
2013,08,21,09,20,18.20
2013,08,21,09,21,18.30
2013,08,21,09,22,18.40
2013,08,21,09,23,18.50
2013,08,21,09,24,18.50
2013,08,21,09,25,18.50
2013,08,21,09,26,18.60
2013,08,21,09,27,18.60
2013,08,21,09,28,18.70
2013,08,21,09,29,18.80
2013,08,21,09,30,18.90
2013,08,21,09,31,19.00
2013,08,21,09,32,19.10
2013,08,21,09,33,19.20
2013,08,21,09,34,19.30
2013,08,21,09,35,19.40
2013,08,21,09,36,19.50
2013,08,21,09,37,19.50
2013,08,21,09,38,19.50
2013,08,21,09,39,19.60
2013,08,21,09,40,19.70
2013,08,21,09,41,19.70
2013,08,21,09,42,19.70
2013,08,21,09,43,19.80
2013,08,21,09,44,19.80
2013,08,21,09,45,19.80
2013,08,21,09,46,19.90
2013,08,21,09,47,19.90
2013,08,21,09,48,19.90
2013,08,21,09,49,19.90
2013,08,21,09,50,19.90
2013,08,21,09,51,19.90
2013,08,21,09,52,19.90
2013,08,21,09,53,19.90
2013,08,21,09,54,19.90
2013,08,21,09,55,19.90
2013,08,21,09,56,19.90
2013,08,21,09,57,20.00
2013,08,21,09,58,20.10
2013,08,21,09,59,20.20
2013,08,21,10,00,20.20
2013,08,21,10,01,20.20
2013,08,21,10,02,20.20
2013,08,21,10,03,20.30
2013,08,21,10,04,20.30
2013,08,21,10,05,20.30
2013,08,21,10,06,20.20
2013,08,21,10,07,20.20
2013,08,21,10,08,20.20
2013,08,21,10,09,20.20
2013,08,21,10,10,20.30
2013,08,21,10,11,20.30
2013,08,21,10,12,20.40
2013,08,21,10,13,20.40
2013,08,21,10,14,20.40
2013,08,21,10,15,20.30
2013,08,21,10,16,20.30
2013,08,21,10,17,20.30
2013,08,21,10,18,20.30
2013,08,21,10,19,20.30
2013,08,21,10,20,20.20
2013,08,21,10,21,20.30
2013,08,21,10,22,20.30
2013,08,21,10,23,20.40
2013,08,21,10,24,20.40
2013,08,21,10,25,20.50
2013,08,21,10,26,20.60
2013,08,21,10,27,20.70
2013,08,21,10,28,20.70
2013,08,21,10,29,20.80
2013,08,21,10,30,20.90
2013,08,21,10,31,21.00
2013,08,21,10,32,21.00
2013,08,21,10,33,21.00
2013,08,21,10,34,21.10
2013,08,21,10,35,21.10
2013,08,21,10,36,21.10
2013,08,21,10,37,21.10
2013,08,21,10,38,21.10
2013,08,21,10,39,21.00
2013,08,21,10,40,21.00
2013,08,21,10,41,21.00
2013,08,21,10,42,20.90
2013,08,21,10,43,20.90
2013,08,21,10,44,20.90
2013,08,21,10,45,21.00
2013,08,21,10,46,21.00
2013,08,21,10,47,21.00
2013,08,21,10,48,21.10
2013,08,21,10,49,21.10
2013,08,21,10,50,21.10
2013,08,21,10,51,21.10
2013,08,21,10,52,21.10
2013,08,21,10,53,21.10
2013,08,21,10,54,21.20
2013,08,21,10,55,21.20
2013,08,21,10,56,21.30
2013,08,21,10,57,21.30
2013,08,21,10,58,21.20
2013,08,21,10,59,21.20
2013,08,21,11,00,21.20
2013,08,21,11,01,21.20
2013,08,21,11,02,21.30
2013,08,21,11,03,21.30
2013,08,21,11,04,21.30
2013,08,21,11,05,21.30
2013,08,21,11,06,21.40
2013,08,21,11,07,21.60
2013,08,21,11,08,21.60
2013,08,21,11,09,21.70
2013,08,21,11,10,21.70
2013,08,21,11,11,21.60
2013,08,21,11,12,21.60
2013,08,21,11,13,21.60
2013,08,21,11,14,21.60
2013,08,21,11,15,21.60
2013,08,21,11,16,21.60
2013,08,21,11,17,21.60
2013,08,21,11,18,21.60
2013,08,21,11,19,21.60
2013,08,21,11,20,21.60
2013,08,21,11,21,21.60
2013,08,21,11,22,21.60
2013,08,21,11,23,21.70
2013,08,21,11,24,21.60
2013,08,21,11,25,21.70
2013,08,21,11,26,21.60
2013,08,21,11,27,21.60
2013,08,21,11,28,21.70
2013,08,21,11,29,21.70
2013,08,21,11,30,21.70
2013,08,21,11,31,21.70
2013,08,21,11,32,21.70
2013,08,21,11,33,21.80
2013,08,21,11,34,21.80
2013,08,21,11,35,21.80
2013,08,21,11,36,21.90
2013,08,21,11,37,21.90
2013,08,21,11,38,22.00
2013,08,21,11,39,22.00
2013,08,21,11,40,22.00
2013,08,21,11,41,21.90
2013,08,21,11,42,21.90
2013,08,21,11,43,21.80
2013,08,21,11,44,21.80
2013,08,21,11,45,21.90
2013,08,21,11,46,21.90
2013,08,21,11,47,21.90
2013,08,21,11,48,21.90
2013,08,21,11,49,22.00
2013,08,21,11,50,22.00
2013,08,21,11,51,22.20
2013,08,21,11,52,22.20
2013,08,21,11,53,22.30
2013,08,21,11,54,22.30
2013,08,21,11,55,22.40
2013,08,21,11,56,22.40
2013,08,21,11,57,22.50
2013,08,21,11,58,22.50
2013,08,21,11,59,22.50
2013,08,21,12,00,22.60
2013,08,21,12,01,22.60
2013,08,21,12,02,22.70
2013,08,21,12,03,22.80
2013,08,21,12,04,22.80
2013,08,21,12,05,22.90
2013,08,21,12,06,22.90
2013,08,21,12,07,22.90
2013,08,21,12,08,22.90
2013,08,21,12,09,22.90
2013,08,21,12,10,22.90
2013,08,21,12,11,22.90
2013,08,21,12,12,22.90
2013,08,21,12,13,22.90
2013,08,21,12,14,22.90
2013,08,21,12,15,22.90
2013,08,21,12,16,22.90
2013,08,21,12,17,22.90
2013,08,21,12,18,22.90
2013,08,21,12,19,23.00
2013,08,21,12,20,23.20
2013,08,21,12,21,23.20
2013,08,21,12,22,23.30
2013,08,21,12,23,23.30
2013,08,21,12,24,23.30
2013,08,21,12,25,23.30
2013,08,21,12,26,23.30
2013,08,21,12,27,23.30
2013,08,21,12,28,23.40
2013,08,21,12,29,23.40
2013,08,21,12,30,23.40
2013,08,21,12,31,23.40
2013,08,21,12,32,23.40
2013,08,21,12,33,23.50
2013,08,21,12,34,23.60
2013,08,21,12,35,23.60
2013,08,21,12,36,23.60
2013,08,21,12,37,23.40
2013,08,21,12,38,23.30
2013,08,21,12,39,23.40
2013,08,21,12,40,23.40
2013,08,21,12,41,23.50
2013,08,21,12,42,23.60
2013,08,21,12,43,23.60
2013,08,21,12,44,23.60
2013,08,21,12,45,23.60
2013,08,21,12,46,23.60
2013,08,21,12,47,23.60
2013,08,21,12,48,23.40
2013,08,21,12,49,23.40
2013,08,21,12,50,23.40
2013,08,21,12,51,23.30
2013,08,21,12,52,23.40
2013,08,21,12,53,23.50
2013,08,21,12,54,23.60
2013,08,21,12,55,23.70
2013,08,21,12,56,23.70
2013,08,21,12,57,23.70
2013,08,21,12,58,23.70
2013,08,21,12,59,23.70
2013,08,21,13,00,23.60
2013,08,21,13,01,23.50
2013,08,21,13,02,23.40
2013,08,21,13,03,23.40
2013,08,21,13,04,23.50
2013,08,21,13,05,23.60
2013,08,21,13,06,23.60
2013,08,21,13,07,23.70
2013,08,21,13,08,23.70
2013,08,21,13,09,23.80
2013,08,21,13,10,23.80
2013,08,21,13,11,23.80
2013,08,21,13,12,23.80
2013,08,21,13,13,23.90
2013,08,21,13,14,23.90
2013,08,21,13,15,24.10
2013,08,21,13,16,24.10
2013,08,21,13,17,24.20
2013,08,21,13,18,24.20
2013,08,21,13,19,24.20
2013,08,21,13,20,24.10
2013,08,21,13,21,24.10
2013,08,21,13,22,24.10
2013,08,21,13,23,24.00
2013,08,21,13,24,23.90
2013,08,21,13,25,23.90
2013,08,21,13,26,23.80
2013,08,21,13,27,23.70
2013,08,21,13,28,23.70
2013,08,21,13,29,23.70
2013,08,21,13,30,23.70
2013,08,21,13,31,23.60
2013,08,21,13,32,23.60
2013,08,21,13,33,23.70
2013,08,21,13,34,23.70
2013,08,21,13,35,23.70
2013,08,21,13,36,23.80
2013,08,21,13,37,23.90
2013,08,21,13,38,23.90
2013,08,21,13,39,23.90
2013,08,21,13,40,23.90
2013,08,21,13,41,23.90
2013,08,21,13,42,23.80
2013,08,21,13,43,23.80
2013,08,21,13,44,23.80
2013,08,21,13,45,23.80
2013,08,21,13,46,23.80
2013,08,21,13,47,23.70
2013,08,21,13,48,23.80
2013,08,21,13,49,23.90
2013,08,21,13,50,23.90
2013,08,21,13,51,24.00
2013,08,21,13,52,24.10
2013,08,21,13,53,24.20
2013,08,21,13,54,24.30
2013,08,21,13,55,24.30
2013,08,21,13,56,24.40
2013,08,21,13,57,24.50
2013,08,21,13,58,24.50
2013,08,21,13,59,24.60
2013,08,21,14,00,24.60
2013,08,21,14,01,24.70
2013,08,21,14,02,24.70
2013,08,21,14,03,24.70
2013,08,21,14,04,24.70
2013,08,21,14,05,24.70
2013,08,21,14,06,24.80
2013,08,21,14,07,24.80
2013,08,21,14,08,24.90
2013,08,21,14,09,24.90
2013,08,21,14,10,25.00
2013,08,21,14,11,25.20
2013,08,21,14,12,25.30
2013,08,21,14,13,25.40
2013,08,21,14,14,25.50
2013,08,21,14,15,25.70
2013,08,21,14,16,25.80
2013,08,21,14,17,25.90
2013,08,21,14,18,25.90
2013,08,21,14,19,25.90
2013,08,21,14,20,25.90
2013,08,21,14,21,25.90
2013,08,21,14,22,25.70
2013,08,21,14,23,25.70
2013,08,21,14,24,25.70
2013,08,21,14,25,25.70
2013,08,21,14,26,25.70
2013,08,21,14,27,25.80
2013,08,21,14,28,25.90
2013,08,21,14,29,26.00
2013,08,21,14,30,26.00
2013,08,21,14,31,26.00
2013,08,21,14,32,25.90
2013,08,21,14,33,25.80
2013,08,21,14,34,25.70
2013,08,21,14,35,25.60
2013,08,21,14,36,25.60
2013,08,21,14,37,25.50
2013,08,21,14,38,25.40
2013,08,21,14,39,25.30
2013,08,21,14,40,25.30
2013,08,21,14,41,25.20
2013,08,21,14,42,25.20
2013,08,21,14,43,25.10
2013,08,21,14,44,25.10
2013,08,21,14,45,25.10
2013,08,21,14,46,25.10
2013,08,21,14,47,25.10
2013,08,21,14,48,25.10
2013,08,21,14,49,25.10
2013,08,21,14,50,25.10
2013,08,21,14,51,25.10
2013,08,21,14,52,25.10
2013,08,21,14,53,25.10
2013,08,21,14,54,25.10
2013,08,21,14,55,25.00
2013,08,21,14,56,25.10
2013,08,21,14,57,25.10
2013,08,21,14,58,25.20
2013,08,21,14,59,25.20
2013,08,21,15,00,25.30
2013,08,21,15,01,25.40
2013,08,21,15,02,25.40
2013,08,21,15,03,25.50
2013,08,21,15,04,25.50
2013,08,21,15,05,25.50
2013,08,21,15,06,25.40
2013,08,21,15,07,25.40
2013,08,21,15,08,25.40
2013,08,21,15,09,25.30
2013,08,21,15,10,25.40
2013,08,21,15,11,25.40
2013,08,21,15,12,25.50
2013,08,21,15,13,25.60
2013,08,21,15,14,25.60
2013,08,21,15,15,25.60
2013,08,21,15,16,25.60
2013,08,21,15,17,25.50
2013,08,21,15,18,25.50
2013,08,21,15,19,25.40
2013,08,21,15,20,25.50
2013,08,21,15,21,25.50
2013,08,21,15,22,25.60
2013,08,21,15,23,25.60
2013,08,21,15,24,25.70
2013,08,21,15,25,25.70
2013,08,21,15,26,25.80
2013,08,21,15,27,25.80
2013,08,21,15,28,25.80
2013,08,21,15,29,25.80
2013,08,21,15,30,25.70
2013,08,21,15,31,25.60
2013,08,21,15,32,25.60
2013,08,21,15,33,25.50
2013,08,21,15,34,25.60
2013,08,21,15,35,25.60
2013,08,21,15,36,25.60
2013,08,21,15,37,25.60
2013,08,21,15,38,25.70
2013,08,21,15,39,25.70
2013,08,21,15,40,25.70
2013,08,21,15,41,25.70
2013,08,21,15,42,25.70
2013,08,21,15,43,25.70
2013,08,21,15,44,25.70
2013,08,21,15,45,25.80
2013,08,21,15,46,25.80
2013,08,21,15,47,25.80
2013,08,21,15,48,25.90
2013,08,21,15,49,25.90
2013,08,21,15,50,26.00
2013,08,21,15,51,26.20
2013,08,21,15,52,26.30
2013,08,21,15,53,26.40
2013,08,21,15,54,26.50
2013,08,21,15,55,26.60
2013,08,21,15,56,26.60
2013,08,21,15,57,26.60
2013,08,21,15,58,26.60
2013,08,21,15,59,26.70
2013,08,21,16,00,26.70
2013,08,21,16,01,26.70
2013,08,21,16,02,26.70
2013,08,21,16,03,26.70
2013,08,21,16,04,26.60
2013,08,21,16,05,26.60
2013,08,21,16,06,26.60
2013,08,21,16,07,26.50
2013,08,21,16,08,26.40
2013,08,21,16,09,26.30
2013,08,21,16,10,26.10
2013,08,21,16,11,26.00
2013,08,21,16,12,26.00
2013,08,21,16,13,26.10
2013,08,21,16,14,26.10
2013,08,21,16,15,26.20
2013,08,21,16,16,26.30
2013,08,21,16,17,26.40
2013,08,21,16,18,26.60
2013,08,21,16,19,26.60
2013,08,21,16,20,26.70
2013,08,21,16,21,26.70
2013,08,21,16,22,26.70
2013,08,21,16,23,26.60
2013,08,21,16,24,26.30
2013,08,21,16,25,26.00
2013,08,21,16,26,25.70
2013,08,21,16,27,25.40
2013,08,21,16,28,25.20
2013,08,21,16,29,25.00
2013,08,21,16,30,24.90
2013,08,21,16,31,24.90
2013,08,21,16,32,24.90
2013,08,21,16,33,24.90
2013,08,21,16,34,25.00
2013,08,21,16,35,25.00
2013,08,21,16,36,25.00
2013,08,21,16,37,24.90
2013,08,21,16,38,24.80
2013,08,21,16,39,24.70
2013,08,21,16,40,24.60
2013,08,21,16,41,24.50
2013,08,21,16,42,24.50
2013,08,21,16,43,24.50
2013,08,21,16,44,24.40
2013,08,21,16,45,24.30
2013,08,21,16,46,24.40
2013,08,21,16,47,24.50
2013,08,21,16,48,24.60
2013,08,21,16,49,24.60
2013,08,21,16,50,24.60
2013,08,21,16,51,24.50
2013,08,21,16,52,24.50
2013,08,21,16,53,24.60
2013,08,21,16,54,24.70
2013,08,21,16,55,24.70
2013,08,21,16,56,24.70
2013,08,21,16,57,24.60
2013,08,21,16,58,24.50
2013,08,21,16,59,24.50
2013,08,21,17,00,24.50
2013,08,21,17,01,24.60
2013,08,21,17,02,24.70
2013,08,21,17,03,24.80
2013,08,21,17,04,24.90
2013,08,21,17,05,25.00
2013,08,21,17,06,25.20
2013,08,21,17,07,25.30
2013,08,21,17,08,25.40
2013,08,21,17,09,25.40
2013,08,21,17,10,25.40
2013,08,21,17,11,25.40
2013,08,21,17,12,25.40
2013,08,21,17,13,25.40
2013,08,21,17,14,25.40
2013,08,21,17,15,25.40
2013,08,21,17,16,25.50
2013,08,21,17,17,25.50
2013,08,21,17,18,25.50
2013,08,21,17,19,25.60